Regional Weather Roundup
Issued by NWS

Home | Current Version | Previous Version | Graphics & Text | Print | Product List | Glossary On
Versions: 1 2 3 4 5 6 7 8 9 10 11 12 13 14 15 16 17 18 19 20 21 22 23 24 25 26 27 28 29 30 31 32 33 34 35 36 37 38 39 40 41 42 43 44 45 46 47 48 49 50
000
ASUS43 KIND 231659
RWRIN

WEATHER ROUNDUP FOR INDIANA
NATIONAL WEATHER SERVICE INDIANAPOLIS IN
100 PM EDT TUE SEP 23 2014

NOTE: "FAIR" INDICATES FEW OR NO CLOUDS BELOW 12,000 FEET WITH NO
SIGNIFICANT WEATHER AND/OR OBSTRUCTIONS TO VISIBILITY.

* - STATION DOES NOT REPORT WEATHER SUCH AS PRECIPITATION OR FOG.

+ - STATION NOT QUALITY CONTROLLED BY THE NATIONAL WEATHER SERVICE.
    USE DATA WITH CAUTION...ESPECIALLY DEWPOINT AND RELATIVE
    HUMIDITY OBSERVATIONS.

INZ001>003-010>013-019-020-231800-
NORTHWEST INDIANA

CITY           SKY/WX    TMP DP  RH WIND       PRES   REMARKS
GARY /AIRPORT/ SUNNY     66  46  48 VRB5      30.36
KNOX *+        SUNNY     67  46  47 CALM      30.35F
MONTICELLO +   SUNNY     68  48  48 CALM      30.35F
VALPARAISO     SUNNY     68  46  45 CALM      30.36F

$$

LMZ046-743>745-231800-
SOUTHERN LAKE MICHIGAN

STATION/POSITION TIME  TEMP WIND        PRES
                       AIR  DIR/SP/G
                 (UTC) (F)  (DEG/KT/KT) (MB)

$$

INZ004-005-014>016-021>024-231800-
NORTH CENTRAL INDIANA

CITY           SKY/WX    TMP DP  RH WIND       PRES   REMARKS
ELKHART        SUNNY     66  46  48 CALM      30.37S
GOSHEN         SUNNY    N/A N/A N/A CALM      30.36S
SOUTH BEND     SUNNY     68  47  46 CALM      30.36F
WARSAW +       SUNNY     64  48  55 CALM      30.36F

$$

INZ006>009-017-018-025>027-231800-
NORTHEAST INDIANA

CITY           SKY/WX    TMP DP  RH WIND       PRES   REMARKS
ANGOLA *+      SUNNY     70  48  46 W3        30.36S
FORT WAYNE     SUNNY     66  50  56 NE6       30.37F

$$

INZ028-029-035-036-043>045-051>053-231800-
WEST CENTRAL INDIANA

CITY           SKY/WX    TMP DP  RH WIND       PRES   REMARKS
GREENCASTLE +  SUNNY     66  48  52 E6        30.36S
LAFAYETTE      SUNNY     67  48  50 VRB7      30.35F
TERRE HAUTE    SUNNY     67  47  48 CALM      30.36S

$$

INZ030>032-037>040-046>048-054>057-064-065-231800-
CENTRAL INDIANA

CITY           SKY/WX    TMP DP  RH WIND       PRES   REMARKS
ANDERSON       SUNNY     66  46  48 CALM      30.37S
FRANKFORT +    SUNNY     70  47  44 E8        30.36F
INDIANAPOLIS   SUNNY     66  46  48 CALM      30.35F
-EAGLE CREEK   SUNNY     68  46  45 NE9       30.35S
KOKOMO *+      SUNNY     66  48  52 E6        30.36S
MT COMFORT *+  SUNNY     66  34  30 E3        30.36S
SHELBYVILLE    SUNNY     70  44  39 VRB3      30.35S
ZIONSVILLE +   SUNNY     67  46  46 E6        30.36S

$$

INZ033-034-041-042-049-050-058-059-231800-
EAST CENTRAL INDIANA

CITY           SKY/WX    TMP DP  RH WIND       PRES   REMARKS
MUNCIE         SUNNY     67  45  45 NE6       30.36S

$$

INZ060-061-067>069-081>083-085>088-231800-
SOUTHWEST INDIANA

CITY           SKY/WX    TMP DP  RH WIND       PRES   REMARKS
EVANSVILLE     SUNNY     70  44  39 E6        30.33S

$$

INZ062-063-066-070>080-084-089>092-231800-
SOUTH CENTRAL AND SOUTHEAST INDIANA

CITY           SKY/WX    TMP DP  RH WIND       PRES   REMARKS
BLOOMINGTON    SUNNY     66  44  45 SE8       30.35F

$$



USA.gov is the U.S. government's official web portal to all federal, state and local government web resources and services.